| time (UTC) | temp F | wind direction | speed MPH | gust MPH | rain 1hr in | rain 24hr in | rain mn in | humidity % | barometer mb |
| 20260905160109 | 85 | 126 | 0.0 | 0.0 | 0.00 | 0.11 | 0.00 | 62 | 1013.6 |
| 20260905154540 | 85 | 69 | 0.0 | 0.0 | 0.00 | 0.11 | 0.00 | 63 | 1013.8 |
| 20260905153032 | 83 | 74 | 0.0 | 0.0 | 0.00 | 0.11 | 0.00 | 63 | 1014.2 |
| 20260905151534 | 83 | 148 | 0.0 | 0.0 | 0.00 | 0.11 | 0.00 | 63 | 1014.2 |
| 20260905150025 | 82 | 141 | 0.0 | 0.0 | 0.00 | 0.11 | 0.00 | 61 | 1014.4 |
| 20260905144520 | 82 | 143 | 0.0 | 0.0 | 0.00 | 0.11 | 0.00 | 56 | 1014.4 |
| 20260905143017 | 81 | 21 | 0.0 | 0.0 | 0.00 | 0.11 | 0.00 | 49 | 1014.6 |
| 20260905141513 | 79 | 124 | 0.0 | 0.0 | 0.00 | 0.11 | 0.00 | 12 | 1014.3 |
| 20260905140007 | 79 | 296 | 0.0 | 0.0 | 0.00 | 0.11 | 0.00 | 1 | 1014.4 |
| 20260905134503 | 78 | 140 | 0.0 | 0.0 | 0.00 | 0.11 | 0.00 | 1 | 1013.8 |
| 20260905133058 | 76 | 140 | 0.0 | 0.0 | 0.00 | 0.11 | 0.00 | 1 | 1013.8 |
| 20260905131600 | 75 | 113 | 0.0 | 0.0 | 0.00 | 0.11 | 0.00 | 1 | 1013.9 |
| 20260905130049 | 73 | 113 | 0.0 | 0.0 | 0.00 | 0.11 | 0.00 | 1 | 1014.2 |
| 20260905124545 | 72 | 113 | 0.0 | 0.0 | 0.00 | 0.11 | 0.00 | 1 | 1014.2 |
| 20260905123040 | 72 | 113 | 0.0 | 0.0 | 0.00 | 0.11 | 0.00 | 1 | 1014.0 |
| 20260905121537 | 72 | 113 | 0.0 | 0.0 | 0.00 | 0.11 | 0.00 | 1 | 1013.7 |
| 20260905120033 | 72 | 113 | 0.0 | 0.0 | 0.00 | 0.11 | 0.00 | 1 | 1013.7 |
| 20260905114529 | 71 | 113 | 0.0 | 0.0 | 0.00 | 0.11 | 0.00 | 1 | 1013.4 |
| 20260905113024 | 71 | 113 | 0.0 | 0.0 | 0.00 | 0.11 | 0.00 | 1 | 1013.3 |
| 20260905111622 | 71 | 113 | 0.0 | 0.0 | 0.00 | 0.11 | 0.00 | 1 | 1013.3 |
| 20260905110016 | 71 | 113 | 0.0 | 0.0 | 0.00 | 0.11 | 0.00 | 1 | 1013.1 |
| 20260905104511 | 71 | 113 | 0.0 | 0.0 | 0.00 | 0.11 | 0.00 | 1 | 1013.1 |
| 20260905103017 | 71 | 113 | 0.0 | 0.0 | 0.00 | 0.11 | 0.00 | 1 | 1013.0 |
| 20260905101503 | 71 | 113 | 0.0 | 0.0 | 0.00 | 0.11 | 0.00 | 1 | 1013.0 |
| 20260905100059 | 71 | 113 | 0.0 | 0.0 | 0.00 | 0.11 | 0.00 | 1 | 1013.0 |
| 20260905094554 | 71 | 113 | 0.0 | 0.0 | 0.00 | 0.11 | 0.00 | 1 | 1012.7 |
| 20260905093049 | 71 | 113 | 0.0 | 0.0 | 0.00 | 0.11 | 0.00 | 1 | 1012.6 |
| 20260905091614 | 71 | 113 | 0.0 | 0.0 | 0.00 | 0.11 | 0.00 | 1 | 1012.5 |
| 20260905090041 | 71 | 113 | 0.0 | 0.0 | 0.00 | 0.11 | 0.00 | 1 | 1012.6 |
| 20260905084536 | 72 | 113 | 0.0 | 0.0 | 0.00 | 0.11 | 0.00 | 1 | 1012.4 |
| 20260905083031 | 72 | 113 | 0.0 | 0.0 | 0.00 | 0.11 | 0.00 | 1 | 1012.2 |
| 20260905081528 | 72 | 113 | 0.0 | 0.0 | 0.00 | 0.11 | 0.00 | 1 | 1012.4 |
| 20260905080027 | 72 | 113 | 0.0 | 0.0 | 0.00 | 0.11 | 0.00 | 1 | 1012.5 |
| 20260905074519 | 72 | 113 | 0.0 | 0.0 | 0.00 | 0.11 | 0.00 | 1 | 1012.6 |
| 20260905073014 | 72 | 113 | 0.0 | 0.0 | 0.00 | 0.11 | 0.00 | 1 | 1012.8 |
| 20260905071510 | 72 | 113 | 0.0 | 0.0 | 0.00 | 0.11 | 0.00 | 1 | 1013.0 |
| 20260905070005 | 73 | 113 | 0.0 | 0.0 | 0.00 | 0.11 | 0.00 | 1 | 1013.2 |
| 20260905064502 | 73 | 113 | 0.0 | 0.0 | 0.00 | 0.11 | 0.00 | 1 | 1013.3 |
| 20260905063058 | 73 | 113 | 0.0 | 0.0 | 0.00 | 0.11 | 0.00 | 1 | 1013.5 |
| 20260905061618 | 73 | 113 | 0.0 | 0.0 | 0.00 | 0.11 | 0.00 | 1 | 1013.6 |
| 20260905060051 | 73 | 113 | 0.0 | 0.0 | 0.00 | 0.11 | 0.00 | 1 | 1013.6 |
| 20260905054543 | 73 | 113 | 0.0 | 0.0 | 0.00 | 0.11 | 0.00 | 1 | 1013.8 |
| 20260905053042 | 74 | 113 | 0.0 | 0.0 | 0.00 | 0.11 | 0.00 | 1 | 1013.9 |
| 20260905051539 | 74 | 113 | 0.0 | 0.0 | 0.00 | 0.11 | 0.00 | 1 | 1013.9 |
| 20260905050035 | 74 | 113 | 0.0 | 0.0 | 0.00 | 0.11 | 0.00 | 1 | 1013.9 |
| 20260905044533 | 74 | 113 | 0.0 | 0.0 | 0.00 | 0.11 | 0.00 | 1 | 1013.8 |
| 20260905043026 | 75 | 113 | 0.0 | 0.0 | 0.00 | 0.11 | 0.00 | 1 | 1013.8 |
| 20260905041518 | 75 | 113 | 0.0 | 0.0 | 0.00 | 0.11 | 0.00 | 1 | 1013.9 |
| 20260905040013 | 75 | 113 | 0.0 | 0.0 | 0.00 | 0.11 | 0.00 | 1 | 1013.9 |
| 20260905034509 | 75 | 113 | 0.0 | 0.0 | 0.00 | 0.11 | 0.11 | 1 | 1013.8 |
| 20260905033005 | 75 | 113 | 0.0 | 0.0 | 0.00 | 0.11 | 0.11 | 1 | 1013.9 |
| 20260905031506 | 76 | 113 | 0.0 | 0.0 | 0.00 | 0.11 | 0.11 | 1 | 1013.9 |
| 20260905030056 | 76 | 113 | 0.0 | 0.0 | 0.00 | 0.11 | 0.11 | 1 | 1013.9 |
| 20260905024552 | 76 | 113 | 0.0 | 0.0 | 0.00 | 0.11 | 0.11 | 1 | 1014.0 |
| 20260905023047 | 76 | 113 | 0.0 | 0.0 | 0.00 | 0.11 | 0.11 | 1 | 1013.8 |
| 20260905021551 | 76 | 113 | 0.0 | 0.0 | 0.00 | 0.11 | 0.11 | 1 | 1013.7 |
| 20260905020045 | 77 | 113 | 0.0 | 0.0 | 0.00 | 0.11 | 0.11 | 1 | 1013.4 |
| 20260905014544 | 77 | 113 | 0.0 | 0.0 | 0.00 | 0.11 | 0.11 | 1 | 1013.3 |
| 20260905013044 | 77 | 113 | 0.0 | 0.0 | 0.00 | 0.11 | 0.11 | 1 | 1013.1 |
| 20260905011545 | 78 | 113 | 0.0 | 0.0 | 0.00 | 0.11 | 0.11 | 1 | 1013.0 |
| 20260905010044 | 78 | 90 | 0.0 | 0.0 | 0.00 | 0.11 | 0.11 | 1 | 1013.3 |
| 20260905004603 | 77 | 264 | 0.0 | 0.0 | 0.00 | 0.11 | 0.11 | 1 | 1013.2 |
| 20260905003040 | 78 | 264 | 0.0 | 0.0 | 0.00 | 0.11 | 0.11 | 1 | 1013.2 |
| 20260905001548 | 79 | 264 | 0.0 | 0.0 | 0.00 | 0.11 | 0.11 | 1 | 1013.3 |
| 20260905000032 | 80 | 135 | 0.0 | 0.0 | 0.00 | 0.11 | 0.11 | 1 | 1013.2 |
| 20260904234534 | 82 | 122 | 0.0 | 0.0 | 0.00 | 0.11 | 0.11 | 6 | 1013.3 |
| 20260904233038 | 83 | 121 | 0.0 | 0.0 | 0.00 | 0.11 | 0.11 | 12 | 1013.1 |
| 20260904231524 | 85 | 132 | 0.0 | 0.0 | 0.00 | 0.11 | 0.11 | 26 | 1013.0 |
| 20260904230015 | 86 | 119 | 0.0 | 0.0 | 0.00 | 0.11 | 0.11 | 27 | 1013.0 |
| 20260904224509 | 86 | 119 | 0.0 | 0.0 | 0.00 | 0.11 | 0.11 | 40 | 1012.9 |
| 20260904223005 | 85 | 119 | 0.0 | 0.0 | 0.01 | 0.11 | 0.11 | 39 | 1012.9 |
| 20260904221502 | 85 | 110 | 0.0 | 0.0 | 0.03 | 0.11 | 0.11 | 36 | 1012.9 |
| 20260904220057 | 83 | 110 | 0.0 | 0.0 | 0.05 | 0.11 | 0.11 | 32 | 1013.0 |
| 20260904214553 | 82 | 114 | 0.0 | 0.0 | 0.07 | 0.11 | 0.11 | 30 | 1013.1 |
| 20260904213048 | 81 | 115 | 0.0 | 0.0 | 0.08 | 0.10 | 0.10 | 23 | 1013.2 |
| 20260904211543 | 81 | 117 | 0.0 | 0.0 | 0.07 | 0.08 | 0.08 | 24 | 1013.5 |
| 20260904210054 | 80 | 147 | 0.0 | 0.0 | 0.05 | 0.06 | 0.06 | 42 | 1013.5 |
| 20260904204535 | 82 | 111 | 0.0 | 0.0 | 0.03 | 0.04 | 0.04 | 52 | 1014.0 |
| 20260904203035 | 88 | 263 | 0.0 | 0.0 | 0.01 | 0.02 | 0.02 | 64 | 1014.2 |
| 20260904201526 | 95 | 103 | 0.0 | 0.0 | 0.00 | 0.01 | 0.01 | 51 | 1013.2 |
| 20260904200022 | 97 | 251 | 0.0 | 0.0 | 0.00 | 0.01 | 0.01 | 49 | 1013.2 |
| 20260904194517 | 98 | 325 | 0.0 | 0.0 | 0.00 | 0.01 | 0.01 | 48 | 1013.3 |
| 20260904193011 | 97 | 274 | 0.0 | 0.0 | 0.01 | 0.01 | 0.01 | 48 | 1013.7 |
| 20260904191507 | 94 | 344 | 0.0 | 0.0 | 0.01 | 0.01 | 0.01 | 55 | 1013.8 |
| 20260904190003 | 92 | 282 | 0.0 | 0.0 | 0.01 | 0.01 | 0.01 | 62 | 1014.2 |
| 20260904184559 | 93 | 147 | 0.0 | 0.0 | 0.01 | 0.01 | 0.01 | 57 | 1014.2 |
| 20260904183054 | 98 | 317 | 0.0 | 0.0 | 0.00 | 0.00 | 0.00 | 50 | 1014.5 |
| 20260904181550 | 97 | 286 | 0.0 | 0.0 | 0.00 | 0.00 | 0.00 | 47 | 1014.4 |
| 20260904180049 | 97 | 280 | 0.0 | 0.0 | 0.00 | 0.00 | 0.00 | 47 | 1014.5 |
| 20260904174645 | 99 | 248 | 0.0 | 0.0 | 0.00 | 0.00 | 0.00 | 44 | 1014.6 |
| 20260904173049 | 98 | 299 | 0.0 | 0.0 | 0.00 | 0.00 | 0.00 | 46 | 1014.7 |
| 20260904170029 | 96 | 170 | 0.0 | 0.0 | 0.00 | 0.00 | 0.00 | 53 | 1015.1 |
| 20260904164525 | 96 | 209 | 0.0 | 0.0 | 0.00 | 0.00 | 0.00 | 51 | 1015.2 |
| 20260904163021 | 96 | 102 | 0.0 | 0.0 | 0.00 | 0.00 | 0.00 | 50 | 1015.4 |
| 20260904161517 | 94 | 13 | 0.0 | 0.0 | 0.00 | 0.00 | 0.00 | 53 | 1015.5 |